Regional Weather Roundup
Issued by NWS Charleston, SC

Current Version | Previous Version | Graphics & Text | Print | Product List | Glossary On
Versions: 1 2 3 4 5 6 7 8 9 10 11 12 13 14 15 16 17 18 19 20 21 22 23 24 25 26 27 28 29 30 31 32 33 34 35 36 37 38 39 40 41 42 43 44 45 46 47 48 49 50
000
ASUS42 KCHS 061812
RWRCHS

REGIONAL WEATHER ROUNDUP
NATIONAL WEATHER SERVICE CHARLESTON SC
200 PM EDT WED MAY 06 2015

NOTE: "FAIR" INDICATES FEW OR NO CLOUDS BELOW 12,000 FEET WITH NO
SIGNIFICANT WEATHER AND/OR OBSTRUCTIONS TO VISIBILITY.

NOT ALL STATIONS ARE QUALITY CONTROLLED BY THE NATIONAL
WEATHER SERVICE. USE DATA WITH CAUTION...ESPECIALLY
DEWPOINT OBSERVATIONS.

SCZ027-030-031-034>040-042>050-061900-
...SOUTHEAST SOUTH CAROLINA...

CITY           SKY/WX    TMP DP  RH WIND       PRES   REMARKS
N CHARLESTON   PTSUNNY   78  59  51 NE10      30.13F
6HR MIN TEMP:  64; 6HR MAX TEMP:  80;

WATERFRONT PRK   N/A    N/A N/A N/A E16         N/A
MOUNT PLEASANT FAIR      79  63  57 MISG      30.14F
PINOPOLIS      NOT AVBL
MONCKS CORNER  FAIR      82  57  42 NE7       30.13F
SUMMERVILLE    FAIR      79  61  53 N8G18     30.14F
BEAUFORT MCAS  PTSUNNY   80  59  48 NE6       30.12F
6HR MIN TEMP:  65; 6HR MAX TEMP:  80;

BEAUFORT ARPT  MOCLDY    77  64  65 E13       30.12F
HILTON HEAD IS MOSUNNY   75  63  64 NE8G18    30.14F
WALTERBORO     MOCLDY    79  54  41 NE12G17   30.14F
ALLENDALE      FAIR      77  55  47 VRB6G15   30.14F

...SOUTHERN MIDLANDS AND PEE DEE...

CITY           SKY/WX    TMP DP  RH WIND       PRES   REMARKS
GEORGETOWN     NOT AVBL
KINGSTREE      NOT AVBL
ORANGEBURG     PTSUNNY   78  52  40 VRB7      30.16F
6HR MIN TEMP:  59; 6HR MAX TEMP:  79;

BARNWELL       MOCLDY    81  50  34 NE8       30.16F
AIKEN          FAIR      79  52  38 NE10G17   30.20F
MANNING        FAIR      79  46  31 NE6       30.15F
COLUMBIA       PTSUNNY   82  52  35 NE8       30.15F
6HR MIN TEMP:  59; 6HR MAX TEMP:  82;

SUMTER         MOSUNNY   81  52  35 E12       30.14F
6HR MIN TEMP:  59; 6HR MAX TEMP:  82;

FLORENCE       MOSUNNY   80  49  33 E13       30.16F
6HR MIN TEMP:  60; 6HR MAX TEMP:  80;

MYRTLE BEACH   MOSUNNY   75  61  60 E16G22    30.18F
N MYRTLE BEACH CLOUDY    76  61  59 E14G20    30.16F
6HR MIN TEMP:  63; 6HR MAX TEMP:  78;


$$

GAZ063-065-086>088-099>101-113>116-118-119-134>141-150-061900-
...SOUTHEAST GEORGIA...

CITY           SKY/WX    TMP DP  RH WIND       PRES   REMARKS
SAVANNAH ARPT  CLOUDY    79  58  48 N10       30.13F
6HR MIN TEMP:  64; 6HR MAX TEMP:  79;

HUNTER AAF     CLOUDY    77  62  59 NE7       30.11F
6HR MIN TEMP:  66; 6HR MAX TEMP:  78;

FORT STEWART   CLOUDY    75  62  64 NE7       30.11F
6HR MIN TEMP:  62; 6HR MAX TEMP:  77;

STATESBORO       N/A     79  60  51 NE9       30.14F
SYLVANIA       MOCLDY    78  60  53 E9        30.16F
CLAXTON        FAIR      77  61  57 NE7       30.14F

...CSRA...CENTRAL AND FAR SOUTHEAST GEORGIA...

CITY           SKY/WX    TMP DP  RH WIND       PRES   REMARKS
THOMSON        MOSUNNY   79  61  53 CALM      30.21F
AUGUSTA-BUSH   MOSUNNY   80  54  40 NE10G17   30.15F
6HR MIN TEMP:  60; 6HR MAX TEMP:  80;

AUGUSTA-DANIEL MOSUNNY   81  51  35 E13G22    30.17F
SWAINSBORO     FAIR      81  32  17 E6        30.16F
VIDALIA        MOSUNNY   79  55  44 NE9       30.15F
EASTMAN        FAIR      82  55  39 E6        30.17F
HAZLEHURST     FAIR      81  60  49 N3        30.13F
ALMA           PTSUNNY   78  60  53 NE8       30.12F
6HR MIN TEMP:  62; 6HR MAX TEMP:  81;

WAYCROSS       PTSUNNY   79  67  64 E13       30.12S
JESUP          CLOUDY    75  66  73 NE5       30.14F
BAXLEY         FAIR      81  61  50 E7        30.12F
BRUNSWICK      CLOUDY    77  63  61 NE12G21   30.13F
SAINT SIMONS   CLOUDY    75  65  70 NE18G25   30.12F
6HR MIN TEMP:  70; 6HR MAX TEMP:  75;


$$

SCZ027-028-034-036>038-045-046-048>050-GAZ119-141-061900-
...LAKE AND SUPPLEMENTAL COASTAL OBSERVATIONS...

STATION/POSITION TIME  TEMP    WIND        PRES    WAVE   SWELL
                       AIR SEA DIR/SP/G            HT/PER HT/PER/DIR
                 (UTC) (F)     (DEG/KT/KT) (MB)    (FT/S) (FT/S/D)
UPR LAKE MARION  NOT AVBL
WINYAH BAY       NOT AVBL
LAKE MURRAY      1700   75      60/  3/  6 1021.3F
ACE BASIN NERRS  NOT AVBL
FORT PULASKI     1706   73 71   50/ 16/ 20 1021.0F
SAPELO ISLAND    1700   75      40/ 11     1020.0F

$$

ANZ835-935-AMZ111-154-330-350-352-354-370-450-454-472-061900-
...C-MAN AND BUOY OBSERVATIONS...

STATION/POSITION TIME  TEMP    WIND        PRES    WAVE   SWELL
                       AIR SEA DIR/SP/G            HT/PER HT/PER/DIR
                 (UTC) (F)     (DEG/KT/KT) (MB)    (FT/S) (FT/S/D)
BUOY 41004       1750   72 73   30/ 19/ 23 1019.0F   8/ 8   5/ 8
BUOY 41008       1750   70 70   30/ 17/ 21 1019.5F   5/ 9   3/ 90/ 9
FOLLY BEACH CMAN 1700   72      50/ 19/ 22 1020.9F
CAPERS NEARSHORE 1708   71      50/ 17/ 23 1021.1F
FRIPP NEARSHORE  1700   72      50/ 17/ 21 1020.1F


STATION/POSITION TIME  TEMP    WIND        PRES    WAVE   SWELL
                       AIR SEA DIR/SP/G            HT/PER HT/PER/DIR
                 (UTC) (F)     (DEG/KT/KT) (MB)    (FT/S) (FT/S/D)
5E ST. MARYS GA  1721      72                N/A     5/ 5
FRYING PAN BUOY  1750   73 71   80/ 17/ 21 1021.2F   6/ 7
BUOY 41025       1750   71 74  100/ 12/ 14 1023.1F   3/ 6   3/140/ 6
CAPE LOOKOUT NC  1700   69      40/ 13/ 14 1022.7F
BUOY 41002       1750   68 70   80/ 25/ 31 1017.6F   9/ 8   3/ 50/11
BUOY 41010       1720   70 78   20/ 17/ 21 1015.8F
ST AUGUSTINE FL  1800   71 72   10/ 19/ 21 1019.1F


$$



USA.gov is the U.S. government's official web portal to all federal, state and local government web resources and services.